| time (UTC) | temp C | wind direction | speed KPH | gust KPH | rain 1hr cm | rain 24hr cm | rain mn cm | humidity % | barometer mb |
| 20260506202720 | 10 | 225 | 11.3 | 17.7 | 0.00 | 0.69 | 0.69 | 82 | 1010.8 |
| 20260506201420 | 10 | 225 | 11.3 | 17.7 | 0.00 | 0.69 | 0.69 | 82 | 1010.8 |
| 20260506200140 | 10 | 270 | 6.4 | 29.0 | 0.00 | 0.69 | 0.69 | 83 | 1010.5 |
| 20260506194709 | 10 | 270 | 6.4 | 29.0 | 0.00 | 0.69 | 0.69 | 83 | 1010.5 |
| 20260506193325 | 10 | 225 | 14.5 | 29.0 | 0.00 | 0.69 | 0.69 | 81 | 1010.2 |
| 20260506191939 | 10 | 225 | 14.5 | 29.0 | 0.00 | 0.69 | 0.69 | 81 | 1010.2 |
| 20260506190705 | 10 | 225 | 14.5 | 29.0 | 0.00 | 0.69 | 0.69 | 81 | 1010.2 |
| 20260506185224 | 11 | 225 | 14.5 | 27.4 | 0.00 | 0.69 | 0.69 | 80 | 1009.6 |
| 20260506183840 | 11 | 225 | 14.5 | 27.4 | 0.00 | 0.69 | 0.69 | 80 | 1009.6 |
| 20260506182504 | 11 | 225 | 14.5 | 27.4 | 0.00 | 0.69 | 0.69 | 80 | 1009.6 |
| 20260506181122 | 11 | 225 | 14.5 | 27.4 | 0.00 | 0.69 | 0.69 | 80 | 1009.6 |
| 20260506175824 | 11 | 270 | 16.1 | 30.6 | 0.00 | 0.69 | 0.69 | 81 | 1009.2 |
| 20260506174442 | 11 | 270 | 16.1 | 30.6 | 0.00 | 0.69 | 0.69 | 81 | 1009.2 |
| 20260506173135 | 11 | 270 | 17.7 | 30.6 | 0.00 | 0.69 | 0.69 | 81 | 1008.9 |
| 20260506171805 | 11 | 270 | 17.7 | 30.6 | 0.00 | 0.69 | 0.69 | 81 | 1008.9 |
| 20260506170444 | 11 | 270 | 17.7 | 30.6 | 0.00 | 0.69 | 0.69 | 81 | 1008.9 |
| 20260506165110 | 11 | 270 | 17.7 | 30.6 | 0.00 | 0.69 | 0.69 | 81 | 1008.9 |
| 20260506163745 | 11 | 270 | 17.7 | 30.6 | 0.00 | 0.69 | 0.69 | 81 | 1008.9 |
| 20260506162329 | 10 | 270 | 11.3 | 22.5 | 0.00 | 0.69 | 0.69 | 84 | 1009.3 |
| 20260506160955 | 10 | 270 | 11.3 | 22.5 | 0.00 | 0.69 | 0.69 | 84 | 1009.3 |
| 20260506155535 | 10 | 270 | 22.5 | 48.3 | 0.25 | 0.69 | 0.69 | 90 | 1009.2 |
| 20260506154230 | 10 | 270 | 22.5 | 48.3 | 0.25 | 0.69 | 0.69 | 90 | 1009.2 |
| 20260506153010 | 10 | 270 | 22.5 | 48.3 | 0.25 | 0.69 | 0.69 | 90 | 1009.2 |
| 20260506151741 | 10 | 270 | 22.5 | 48.3 | 0.25 | 0.69 | 0.69 | 90 | 1009.2 |
| 20260506150345 | 10 | 225 | 27.4 | 57.9 | 0.41 | 0.43 | 0.43 | 92 | 1008.3 |
| 20260506145005 | 10 | 225 | 27.4 | 57.9 | 0.41 | 0.43 | 0.43 | 92 | 1008.3 |
| 20260506143705 | 10 | 225 | 27.4 | 57.9 | 0.41 | 0.43 | 0.43 | 92 | 1008.3 |
| 20260506142315 | 12 | 270 | 30.6 | 57.9 | 0.00 | 0.03 | 0.03 | 77 | 1007.1 |
| 20260506141001 | 12 | 270 | 30.6 | 57.9 | 0.00 | 0.03 | 0.03 | 77 | 1007.1 |
| 20260506135630 | 15 | 315 | 3.2 | 9.7 | 0.00 | 0.03 | 0.03 | 64 | 1005.9 |
| 20260506134315 | 15 | 315 | 3.2 | 9.7 | 0.00 | 0.03 | 0.03 | 64 | 1005.9 |
| 20260506132915 | 15 | 315 | 6.4 | 9.7 | 0.00 | 0.03 | 0.03 | 62 | 1005.8 |
| 20260506131520 | 15 | 315 | 6.4 | 9.7 | 0.00 | 0.03 | 0.03 | 62 | 1005.8 |
| 20260506130221 | 15 | 270 | 6.4 | 12.9 | 0.00 | 0.03 | 0.03 | 70 | 1005.8 |
| 20260506124920 | 15 | 270 | 6.4 | 12.9 | 0.00 | 0.03 | 0.03 | 70 | 1005.8 |
| 20260506123553 | 15 | 270 | 6.4 | 12.9 | 0.00 | 0.03 | 0.03 | 70 | 1005.8 |
| 20260506122235 | 15 | 270 | 6.4 | 12.9 | 0.00 | 0.03 | 0.03 | 70 | 1005.8 |
| 20260506120755 | 15 | 270 | 6.4 | 12.9 | 0.00 | 0.03 | 0.03 | 70 | 1005.8 |
| 20260506115452 | 14 | 270 | 6.4 | 11.3 | 0.00 | 0.03 | 0.03 | 77 | 1006.2 |
| 20260506114145 | 14 | 270 | 6.4 | 11.3 | 0.00 | 0.03 | 0.03 | 77 | 1006.2 |
| 20260506112900 | 14 | 270 | 4.8 | 9.7 | 0.00 | 0.03 | 0.03 | 76 | 1006.3 |
| 20260506111449 | 14 | 270 | 4.8 | 9.7 | 0.00 | 0.03 | 0.03 | 76 | 1006.3 |
| 20260506110240 | 13 | 225 | 6.4 | 9.7 | 0.00 | 0.03 | 0.03 | 81 | 1006.7 |
| 20260506104900 | 13 | 225 | 6.4 | 9.7 | 0.00 | 0.03 | 0.03 | 81 | 1006.7 |
| 20260506103510 | 12 | 270 | 6.4 | 8.0 | 0.00 | 0.00 | 0.00 | 85 | 1006.7 |
| 20260506102125 | 12 | 270 | 6.4 | 8.0 | 0.00 | 0.00 | 0.00 | 85 | 1006.7 |
| 20260506100825 | 12 | 270 | 6.4 | 8.0 | 0.00 | 0.00 | 0.00 | 85 | 1006.7 |
| 20260506095400 | 12 | 0 | 3.2 | 4.8 | 0.00 | 0.00 | 0.00 | 83 | 1006.6 |
| 20260506094005 | 12 | 0 | 3.2 | 4.8 | 0.00 | 0.00 | 0.00 | 83 | 1006.6 |
| 20260506092621 | 12 | 225 | 3.2 | 4.8 | 0.00 | 0.00 | 0.00 | 86 | 1006.8 |
| 20260506091250 | 12 | 225 | 3.2 | 4.8 | 0.00 | 0.00 | 0.00 | 86 | 1006.8 |
| 20260506085940 | 12 | 225 | 3.2 | 8.0 | 0.00 | 0.00 | 0.00 | 89 | 1006.8 |
| 20260506084740 | 12 | 225 | 3.2 | 8.0 | 0.00 | 0.00 | 0.00 | 89 | 1006.8 |
| 20260506083510 | 12 | 315 | 1.6 | 6.4 | 0.00 | 0.00 | 0.00 | 87 | 1006.9 |
| 20260506082106 | 12 | 315 | 1.6 | 6.4 | 0.00 | 0.00 | 0.00 | 87 | 1006.9 |
| 20260506080655 | 12 | 315 | 1.6 | 6.4 | 0.00 | 0.00 | 0.00 | 87 | 1006.9 |
| 20260506072611 | 11 | 180 | 3.2 | 6.4 | 0.00 | 0.00 | 0.00 | 95 | 1007.2 |
| 20260506071147 | 11 | 180 | 3.2 | 6.4 | 0.00 | 0.00 | 0.00 | 95 | 1007.2 |
| 20260506061630 | 9 | 315 | 1.6 | 8.0 | 0.00 | 0.00 | 0.00 | 97 | 1007.6 |
| 20260506060315 | 8 | 270 | 3.2 | 6.4 | 0.00 | 0.00 | 0.00 | 96 | 1007.9 |
| 20260506050845 | 8 | 0 | 3.2 | 6.4 | 0.00 | 0.00 | 0.00 | 97 | 1008.1 |
| 20260506044120 | 8 | 0 | 4.8 | 8.0 | 0.00 | 0.00 | 0.00 | 97 | 1008.7 |
| 20260506042900 | 8 | 0 | 4.8 | 8.0 | 0.00 | 0.00 | 0.00 | 97 | 1008.7 |
| 20260506041621 | 8 | 0 | 4.8 | 8.0 | 0.00 | 0.00 | 0.00 | 97 | 1008.7 |
| 20260506040420 | 8 | 45 | 4.8 | 8.0 | 0.00 | 0.00 | 0.00 | 96 | 1009.0 |
| 20260506034925 | 8 | 45 | 4.8 | 8.0 | 0.00 | 0.00 | 0.00 | 96 | 1009.0 |
| 20260506033545 | 8 | 0 | 3.2 | 4.8 | 0.00 | 0.00 | 0.00 | 95 | 1009.1 |
| 20260506032215 | 8 | 0 | 3.2 | 4.8 | 0.00 | 0.00 | 0.00 | 95 | 1009.1 |
| 20260506030739 | 8 | 0 | 3.2 | 4.8 | 0.00 | 0.00 | 0.00 | 95 | 1009.1 |
| 20260506025428 | 8 | 0 | 3.2 | 6.4 | 0.00 | 0.00 | 0.00 | 96 | 1009.4 |
| 20260506024045 | 8 | 0 | 3.2 | 6.4 | 0.00 | 0.00 | 0.00 | 96 | 1009.4 |
| 20260506022820 | 8 | 0 | 3.2 | 3.2 | 0.00 | 0.00 | 0.00 | 96 | 1009.4 |
| 20260506021450 | 8 | 0 | 3.2 | 3.2 | 0.00 | 0.00 | 0.00 | 96 | 1009.4 |
| 20260506020100 | 8 | 45 | 3.2 | 6.4 | 0.00 | 0.00 | 0.00 | 96 | 1010.0 |
| 20260506014655 | 8 | 45 | 3.2 | 6.4 | 0.00 | 0.00 | 0.00 | 96 | 1010.0 |
| 20260506013300 | 8 | 45 | 3.2 | 6.4 | 0.00 | 0.00 | 0.00 | 96 | 1010.0 |
| 20260506012000 | 8 | 45 | 3.2 | 6.4 | 0.00 | 0.00 | 0.00 | 96 | 1010.0 |
| 20260506010710 | 8 | 45 | 3.2 | 6.4 | 0.00 | 0.00 | 0.00 | 96 | 1010.0 |
| 20260506005337 | 8 | 0 | 3.2 | 6.4 | 0.00 | 0.00 | 0.00 | 94 | 1009.8 |
| 20260506004100 | 8 | 0 | 3.2 | 6.4 | 0.00 | 0.00 | 0.00 | 94 | 1009.8 |
| 20260506002740 | 9 | 45 | 3.2 | 6.4 | 0.00 | 0.00 | 0.00 | 94 | 1010.0 |
| 20260506001423 | 9 | 45 | 3.2 | 6.4 | 0.00 | 0.00 | 0.00 | 94 | 1010.0 |
| 20260506000120 | 9 | 45 | 3.2 | 6.4 | 0.00 | 0.00 | 0.00 | 94 | 1010.2 |
| 20260505234755 | 9 | 45 | 3.2 | 6.4 | 0.00 | 0.00 | 0.00 | 94 | 1010.2 |
| 20260505233430 | 9 | 45 | 3.2 | 6.4 | 0.00 | 0.00 | 0.00 | 94 | 1010.2 |
| 20260505232015 | 9 | 45 | 3.2 | 6.4 | 0.00 | 0.00 | 0.00 | 94 | 1010.2 |
| 20260505230710 | 9 | 45 | 3.2 | 6.4 | 0.00 | 0.00 | 0.00 | 94 | 1010.2 |
| 20260505225300 | 9 | 45 | 3.2 | 4.8 | 0.00 | 0.00 | 0.00 | 91 | 1010.5 |
| 20260505223853 | 9 | 45 | 3.2 | 4.8 | 0.00 | 0.00 | 0.00 | 91 | 1010.5 |
| 20260505222600 | 10 | 90 | 3.2 | 3.2 | 0.00 | 0.00 | 0.00 | 91 | 1010.3 |
| 20260505221215 | 10 | 90 | 3.2 | 3.2 | 0.00 | 0.00 | 0.00 | 91 | 1010.3 |
| 20260505215915 | 10 | 45 | 3.2 | 12.9 | 0.00 | 0.00 | 0.00 | 92 | 1010.4 |
| 20260505214630 | 10 | 45 | 3.2 | 12.9 | 0.00 | 0.00 | 0.00 | 92 | 1010.4 |
| 20260505213400 | 11 | 0 | 3.2 | 12.9 | 0.00 | 0.00 | 0.00 | 87 | 1010.0 |
| 20260505212040 | 11 | 0 | 3.2 | 12.9 | 0.00 | 0.00 | 0.00 | 87 | 1010.0 |
| 20260505210740 | 11 | 0 | 3.2 | 12.9 | 0.00 | 0.00 | 0.00 | 87 | 1010.0 |
| 20260505205353 | 12 | 180 | 3.2 | 11.3 | 0.00 | 0.00 | 0.00 | 83 | 1009.4 |
| 20260505204002 | 12 | 180 | 3.2 | 11.3 | 0.00 | 0.00 | 0.00 | 83 | 1009.4 |